Year,Month,Day,Hour,Minute,Value (Times are PST for temperature in C)
2013,04,28,00,00,9.60
2013,04,28,00,01,9.60
2013,04,28,00,02,9.60
2013,04,28,00,03,9.60
2013,04,28,00,04,9.50
2013,04,28,00,05,9.40
2013,04,28,00,06,9.40
2013,04,28,00,07,9.30
2013,04,28,00,08,9.30
2013,04,28,00,09,9.20
2013,04,28,00,10,9.20
2013,04,28,00,11,9.20
2013,04,28,00,12,9.30
2013,04,28,00,13,9.20
2013,04,28,00,14,9.20
2013,04,28,00,15,9.20
2013,04,28,00,16,9.20
2013,04,28,00,17,9.20
2013,04,28,00,18,9.20
2013,04,28,00,19,9.20
2013,04,28,00,20,9.10
2013,04,28,00,21,9.10
2013,04,28,00,22,9.10
2013,04,28,00,23,9.10
2013,04,28,00,24,9.10
2013,04,28,00,25,9.00
2013,04,28,00,26,9.00
2013,04,28,00,27,9.00
2013,04,28,00,28,9.00
2013,04,28,00,29,9.00
2013,04,28,00,30,9.00
2013,04,28,00,31,9.00
2013,04,28,00,32,9.10
2013,04,28,00,33,9.10
2013,04,28,00,34,9.10
2013,04,28,00,35,9.00
2013,04,28,00,36,9.00
2013,04,28,00,37,8.90
2013,04,28,00,38,8.90
2013,04,28,00,39,8.90
2013,04,28,00,40,8.90
2013,04,28,00,41,8.90
2013,04,28,00,42,8.90
2013,04,28,00,43,8.80
2013,04,28,00,44,8.80
2013,04,28,00,45,8.80
2013,04,28,00,46,8.80
2013,04,28,00,47,8.80
2013,04,28,00,48,8.80
2013,04,28,00,49,8.80
2013,04,28,00,50,8.80
2013,04,28,00,51,8.80
2013,04,28,00,52,8.80
2013,04,28,00,53,8.80
2013,04,28,00,54,8.70
2013,04,28,00,55,8.70
2013,04,28,00,56,8.70
2013,04,28,00,57,8.70
2013,04,28,00,58,8.70
2013,04,28,00,59,8.70
2013,04,28,01,00,8.70
2013,04,28,01,01,8.70
2013,04,28,01,02,8.70
2013,04,28,01,03,8.70
2013,04,28,01,04,8.70
2013,04,28,01,05,8.70
2013,04,28,01,06,8.70
2013,04,28,01,07,8.70
2013,04,28,01,08,8.60
2013,04,28,01,09,8.60
2013,04,28,01,10,8.60
2013,04,28,01,11,8.60
2013,04,28,01,12,8.50
2013,04,28,01,13,8.50
2013,04,28,01,14,8.50
2013,04,28,01,15,8.40
2013,04,28,01,16,8.40
2013,04,28,01,17,8.30
2013,04,28,01,18,8.30
2013,04,28,01,19,8.30
2013,04,28,01,20,8.30
2013,04,28,01,21,8.30
2013,04,28,01,22,8.30
2013,04,28,01,23,8.30
2013,04,28,01,24,8.30
2013,04,28,01,25,8.30
2013,04,28,01,26,8.30
2013,04,28,01,27,8.30
2013,04,28,01,28,8.30
2013,04,28,01,29,8.30
2013,04,28,01,30,8.30
2013,04,28,01,31,8.20
2013,04,28,01,32,8.20
2013,04,28,01,33,8.20
2013,04,28,01,34,8.20
2013,04,28,01,35,8.20
2013,04,28,01,36,8.20
2013,04,28,01,37,8.20
2013,04,28,01,38,8.20
2013,04,28,01,39,8.20
2013,04,28,01,40,8.20
2013,04,28,01,41,8.20
2013,04,28,01,42,8.20
2013,04,28,01,43,8.20
2013,04,28,01,44,8.20
2013,04,28,01,45,8.20
2013,04,28,01,46,8.10
2013,04,28,01,47,8.10
2013,04,28,01,48,8.10
2013,04,28,01,49,8.10
2013,04,28,01,50,8.10
2013,04,28,01,51,8.10
2013,04,28,01,52,8.10
2013,04,28,01,53,8.10
2013,04,28,01,54,8.10
2013,04,28,01,55,8.10
2013,04,28,01,56,8.00
2013,04,28,01,57,8.00
2013,04,28,01,58,8.00
2013,04,28,01,59,8.00
2013,04,28,02,00,8.00
2013,04,28,02,01,8.00
2013,04,28,02,02,8.10
2013,04,28,02,03,8.10
2013,04,28,02,04,8.10
2013,04,28,02,05,8.00
2013,04,28,02,06,8.00
2013,04,28,02,07,8.00
2013,04,28,02,08,8.00
2013,04,28,02,09,8.00
2013,04,28,02,10,8.00
2013,04,28,02,11,8.00
2013,04,28,02,12,8.00
2013,04,28,02,13,8.00
2013,04,28,02,14,8.00
2013,04,28,02,15,7.90
2013,04,28,02,16,7.90
2013,04,28,02,17,7.90
2013,04,28,02,18,8.00
2013,04,28,02,19,8.00
2013,04,28,02,20,8.00
2013,04,28,02,21,8.00
2013,04,28,02,22,8.00
2013,04,28,02,23,8.00
2013,04,28,02,24,8.00
2013,04,28,02,25,8.00
2013,04,28,02,26,8.00
2013,04,28,02,27,8.00
2013,04,28,02,28,7.90
2013,04,28,02,29,7.90
2013,04,28,02,30,7.90
2013,04,28,02,31,7.90
2013,04,28,02,32,7.90
2013,04,28,02,33,7.90
2013,04,28,02,34,7.90
2013,04,28,02,35,7.90
2013,04,28,02,36,7.90
2013,04,28,02,37,7.90
2013,04,28,02,38,7.90
2013,04,28,02,39,7.90
2013,04,28,02,40,7.90
2013,04,28,02,41,7.90
2013,04,28,02,42,7.90
2013,04,28,02,43,7.90
2013,04,28,02,44,7.90
2013,04,28,02,45,7.90
2013,04,28,02,46,7.90
2013,04,28,02,47,7.90
2013,04,28,02,48,7.90
2013,04,28,02,49,7.90
2013,04,28,02,50,7.90
2013,04,28,02,51,7.90
2013,04,28,02,52,7.90
2013,04,28,02,53,7.90
2013,04,28,02,54,7.90
2013,04,28,02,55,7.90
2013,04,28,02,56,7.90
2013,04,28,02,57,7.90
2013,04,28,02,58,7.80
2013,04,28,02,59,7.80
2013,04,28,03,00,7.80
2013,04,28,03,01,7.80
2013,04,28,03,02,7.80
2013,04,28,03,03,7.80
2013,04,28,03,04,7.80
2013,04,28,03,05,7.80
2013,04,28,03,06,7.80
2013,04,28,03,07,7.80
2013,04,28,03,08,7.90
2013,04,28,03,09,7.90
2013,04,28,03,10,7.90
2013,04,28,03,11,7.90
2013,04,28,03,12,7.90
2013,04,28,03,13,7.90
2013,04,28,03,14,7.90
2013,04,28,03,15,7.90
2013,04,28,03,16,7.90
2013,04,28,03,17,7.90
2013,04,28,03,18,7.90
2013,04,28,03,19,7.90
2013,04,28,03,20,7.90
2013,04,28,03,21,7.90
2013,04,28,03,22,7.90
2013,04,28,03,23,7.90
2013,04,28,03,24,7.90
2013,04,28,03,25,7.90
2013,04,28,03,26,7.80
2013,04,28,03,27,7.80
2013,04,28,03,28,7.80
2013,04,28,03,29,7.80
2013,04,28,03,30,7.80
2013,04,28,03,31,7.80
2013,04,28,03,32,7.80
2013,04,28,03,33,7.80
2013,04,28,03,34,7.80
2013,04,28,03,35,7.80
2013,04,28,03,36,7.80
2013,04,28,03,37,7.80
2013,04,28,03,38,7.80
2013,04,28,03,39,7.80
2013,04,28,03,40,7.80
2013,04,28,03,41,7.70
2013,04,28,03,42,7.70
2013,04,28,03,43,7.70
2013,04,28,03,44,7.70
2013,04,28,03,45,7.60
2013,04,28,03,46,7.60
2013,04,28,03,47,7.60
2013,04,28,03,48,7.60
2013,04,28,03,49,7.60
2013,04,28,03,50,7.60
2013,04,28,03,51,7.60
2013,04,28,03,52,7.60
2013,04,28,03,53,7.60
2013,04,28,03,54,7.50
2013,04,28,03,55,7.50
2013,04,28,03,56,7.50
2013,04,28,03,57,7.50
2013,04,28,03,58,7.50
2013,04,28,03,59,7.40
2013,04,28,04,00,7.40
2013,04,28,04,01,7.40
2013,04,28,04,02,7.40
2013,04,28,04,03,7.40
2013,04,28,04,04,7.40
2013,04,28,04,05,7.40
2013,04,28,04,06,7.40
2013,04,28,04,07,7.40
2013,04,28,04,08,7.40
2013,04,28,04,09,7.40
2013,04,28,04,10,7.40
2013,04,28,04,11,7.40
2013,04,28,04,12,7.30
2013,04,28,04,13,7.30
2013,04,28,04,14,7.30
2013,04,28,04,15,7.30
2013,04,28,04,16,7.30
2013,04,28,04,17,7.30
2013,04,28,04,18,7.20
2013,04,28,04,19,7.30
2013,04,28,04,20,7.30
2013,04,28,04,21,7.30
2013,04,28,04,22,7.30
2013,04,28,04,23,7.30
2013,04,28,04,24,7.30
2013,04,28,04,25,7.30
2013,04,28,04,26,7.30
2013,04,28,04,27,7.30
2013,04,28,04,28,7.30
2013,04,28,04,29,7.20
2013,04,28,04,30,7.20
2013,04,28,04,31,7.20
2013,04,28,04,32,7.20
2013,04,28,04,33,7.20
2013,04,28,04,34,7.20
2013,04,28,04,35,7.20
2013,04,28,04,36,7.20
2013,04,28,04,37,7.20
2013,04,28,04,38,7.20
2013,04,28,04,39,7.20
2013,04,28,04,40,7.20
2013,04,28,04,41,7.20
2013,04,28,04,42,7.20
2013,04,28,04,43,7.20
2013,04,28,04,44,7.20
2013,04,28,04,45,7.20
2013,04,28,04,46,7.20
2013,04,28,04,47,7.20
2013,04,28,04,48,7.20
2013,04,28,04,49,7.20
2013,04,28,04,50,7.20
2013,04,28,04,51,7.20
2013,04,28,04,52,7.10
2013,04,28,04,53,7.10
2013,04,28,04,54,7.10
2013,04,28,04,55,7.10
2013,04,28,04,56,7.10
2013,04,28,04,57,7.10
2013,04,28,04,58,7.10
2013,04,28,04,59,7.10
2013,04,28,05,00,7.00
2013,04,28,05,01,7.00
2013,04,28,05,02,7.00
2013,04,28,05,03,6.90
2013,04,28,05,04,6.90
2013,04,28,05,05,6.90
2013,04,28,05,06,6.90
2013,04,28,05,07,6.90
2013,04,28,05,08,6.90
2013,04,28,05,09,6.90
2013,04,28,05,10,6.90
2013,04,28,05,11,6.80
2013,04,28,05,12,6.90
2013,04,28,05,13,6.90
2013,04,28,05,14,6.90
2013,04,28,05,15,6.90
2013,04,28,05,16,6.90
2013,04,28,05,17,7.00
2013,04,28,05,18,7.00
2013,04,28,05,19,7.00
2013,04,28,05,20,7.00
2013,04,28,05,21,7.10
2013,04,28,05,22,7.00
2013,04,28,05,23,7.00
2013,04,28,05,24,6.90
2013,04,28,05,25,6.90
2013,04,28,05,26,6.90
2013,04,28,05,27,6.90
2013,04,28,05,28,6.90
2013,04,28,05,29,6.90
2013,04,28,05,30,6.90
2013,04,28,05,31,6.90
2013,04,28,05,32,6.90
2013,04,28,05,33,6.90
2013,04,28,05,34,6.90
2013,04,28,05,35,6.90
2013,04,28,05,36,6.80
2013,04,28,05,37,6.80
2013,04,28,05,38,6.80
2013,04,28,05,39,6.80
2013,04,28,05,40,6.80
2013,04,28,05,41,6.80
2013,04,28,05,42,6.70
2013,04,28,05,43,6.70
2013,04,28,05,44,6.60
2013,04,28,05,45,6.50
2013,04,28,05,46,6.50
2013,04,28,05,47,6.40
2013,04,28,05,48,6.30
2013,04,28,05,49,6.30
2013,04,28,05,50,6.20
2013,04,28,05,51,6.20
2013,04,28,05,52,6.10
2013,04,28,05,53,6.10
2013,04,28,05,54,6.10
2013,04,28,05,55,6.00
2013,04,28,05,56,6.00
2013,04,28,05,57,6.00
2013,04,28,05,58,6.10
2013,04,28,05,59,6.10
2013,04,28,06,00,6.20
2013,04,28,06,01,6.20
2013,04,28,06,02,6.40
2013,04,28,06,03,6.50
2013,04,28,06,04,6.50
2013,04,28,06,05,6.60
2013,04,28,06,06,6.70
2013,04,28,06,07,6.70
2013,04,28,06,08,6.80
2013,04,28,06,09,6.80
2013,04,28,06,10,6.90
2013,04,28,06,11,7.00
2013,04,28,06,12,7.00
2013,04,28,06,13,7.10
2013,04,28,06,14,7.10
2013,04,28,06,15,7.20
2013,04,28,06,16,7.20
2013,04,28,06,17,7.20
2013,04,28,06,18,7.20
2013,04,28,06,19,7.20
2013,04,28,06,20,7.30
2013,04,28,06,21,7.30
2013,04,28,06,22,7.30
2013,04,28,06,23,7.30
2013,04,28,06,24,7.30
2013,04,28,06,25,7.30
2013,04,28,06,26,7.30
2013,04,28,06,27,7.30
2013,04,28,06,28,7.20
2013,04,28,06,29,7.20
2013,04,28,06,30,7.20
2013,04,28,06,31,7.20
2013,04,28,06,32,7.20
2013,04,28,06,33,7.20
2013,04,28,06,34,7.20
2013,04,28,06,35,7.30
2013,04,28,06,36,7.30
2013,04,28,06,37,7.30
2013,04,28,06,38,7.30
2013,04,28,06,39,7.30
2013,04,28,06,40,7.30
2013,04,28,06,41,7.30
2013,04,28,06,42,7.30
2013,04,28,06,43,7.30
2013,04,28,06,44,7.40
2013,04,28,06,45,7.40
2013,04,28,06,46,7.50
2013,04,28,06,47,7.50
2013,04,28,06,48,7.50
2013,04,28,06,49,7.60
2013,04,28,06,50,7.60
2013,04,28,06,51,7.60
2013,04,28,06,52,7.70
2013,04,28,06,53,7.70
2013,04,28,06,54,7.80
2013,04,28,06,55,7.90
2013,04,28,06,56,7.90
2013,04,28,06,57,8.00
2013,04,28,06,58,8.10
2013,04,28,06,59,8.10
2013,04,28,07,00,8.10
2013,04,28,07,01,8.10
2013,04,28,07,02,8.10
2013,04,28,07,03,8.10
2013,04,28,07,04,8.10
2013,04,28,07,05,8.10
2013,04,28,07,06,8.10
2013,04,28,07,07,8.10
2013,04,28,07,08,8.20
2013,04,28,07,09,8.20
2013,04,28,07,10,8.20
2013,04,28,07,11,8.20
2013,04,28,07,12,8.30
2013,04,28,07,13,8.30
2013,04,28,07,14,8.30
2013,04,28,07,15,8.30
2013,04,28,07,16,8.40
2013,04,28,07,17,8.40
2013,04,28,07,18,8.40
2013,04,28,07,19,8.40
2013,04,28,07,20,8.40
2013,04,28,07,21,8.40
2013,04,28,07,22,8.40
2013,04,28,07,23,8.40
2013,04,28,07,24,8.50
2013,04,28,07,25,8.50
2013,04,28,07,26,8.60
2013,04,28,07,27,8.60
2013,04,28,07,28,8.70
2013,04,28,07,29,8.70
2013,04,28,07,30,8.70
2013,04,28,07,31,8.70
2013,04,28,07,32,8.70
2013,04,28,07,33,8.70
2013,04,28,07,34,8.80
2013,04,28,07,35,8.80
2013,04,28,07,36,8.80
2013,04,28,07,37,8.80
2013,04,28,07,38,8.80
2013,04,28,07,39,8.80
2013,04,28,07,40,8.90
2013,04,28,07,41,8.90
2013,04,28,07,42,9.00
2013,04,28,07,43,9.00
2013,04,28,07,44,9.00
2013,04,28,07,45,9.00
2013,04,28,07,46,9.10
2013,04,28,07,47,9.10
2013,04,28,07,48,9.10
2013,04,28,07,49,9.10
2013,04,28,07,50,9.20
2013,04,28,07,51,9.20
2013,04,28,07,52,9.20
2013,04,28,07,53,9.20
2013,04,28,07,54,9.30
2013,04,28,07,55,9.30
2013,04,28,07,56,9.20
2013,04,28,07,57,9.20
2013,04,28,07,58,9.20
2013,04,28,07,59,9.20
2013,04,28,08,00,9.10
2013,04,28,08,01,9.10
2013,04,28,08,02,9.10
2013,04,28,08,03,9.20
2013,04,28,08,04,9.20
2013,04,28,08,05,9.20
2013,04,28,08,06,9.20
2013,04,28,08,07,9.20
2013,04,28,08,08,9.20
2013,04,28,08,09,9.20
2013,04,28,08,10,9.20
2013,04,28,08,11,9.30
2013,04,28,08,12,9.20
2013,04,28,08,13,9.30
2013,04,28,08,14,9.30
2013,04,28,08,15,9.30
2013,04,28,08,16,9.30
2013,04,28,08,17,9.30
2013,04,28,08,18,9.30
2013,04,28,08,19,9.40
2013,04,28,08,20,9.40
2013,04,28,08,21,9.40
2013,04,28,08,22,9.40
2013,04,28,08,23,9.40
2013,04,28,08,24,9.50
2013,04,28,08,25,9.50
2013,04,28,08,26,9.50
2013,04,28,08,27,9.50
2013,04,28,08,28,9.60
2013,04,28,08,29,9.60
2013,04,28,08,30,9.60
2013,04,28,08,31,9.60
2013,04,28,08,32,9.60
2013,04,28,08,33,9.60
2013,04,28,08,34,9.60
2013,04,28,08,35,9.60
2013,04,28,08,36,9.60
2013,04,28,08,37,9.70
2013,04,28,08,38,9.70
2013,04,28,08,39,9.80
2013,04,28,08,40,9.80
2013,04,28,08,41,9.80
2013,04,28,08,42,9.70
2013,04,28,08,43,9.70
2013,04,28,08,44,9.70
2013,04,28,08,45,9.80
2013,04,28,08,46,9.80
2013,04,28,08,47,9.80
2013,04,28,08,48,9.90
2013,04,28,08,49,10.00
2013,04,28,08,50,10.10
2013,04,28,08,51,10.10
2013,04,28,08,52,10.10
2013,04,28,08,53,10.10
2013,04,28,08,54,10.20
2013,04,28,08,55,10.20
2013,04,28,08,56,10.30
2013,04,28,08,57,10.30
2013,04,28,08,58,10.30
2013,04,28,08,59,10.40
2013,04,28,09,00,10.50
2013,04,28,09,01,10.50
2013,04,28,09,02,10.50
2013,04,28,09,03,10.50
2013,04,28,09,04,10.50
2013,04,28,09,05,10.50
2013,04,28,09,06,10.50
2013,04,28,09,07,10.50
2013,04,28,09,08,10.50
2013,04,28,09,09,10.60
2013,04,28,09,10,10.70
2013,04,28,09,11,10.70
2013,04,28,09,12,10.80
2013,04,28,09,13,10.80
2013,04,28,09,14,10.80
2013,04,28,09,15,10.70
2013,04,28,09,16,10.70
2013,04,28,09,17,10.70
2013,04,28,09,18,10.70
2013,04,28,09,19,10.70
2013,04,28,09,20,10.70
2013,04,28,09,21,10.70
2013,04,28,09,22,10.80
2013,04,28,09,23,10.80
2013,04,28,09,24,10.80
2013,04,28,09,25,10.80
2013,04,28,09,26,10.80
2013,04,28,09,27,10.80
2013,04,28,09,28,10.90
2013,04,28,09,29,10.90
2013,04,28,09,30,10.90
2013,04,28,09,31,10.90
2013,04,28,09,32,10.90
2013,04,28,09,33,10.80
2013,04,28,09,34,10.80
2013,04,28,09,35,10.80
2013,04,28,09,36,10.80
2013,04,28,09,37,10.90
2013,04,28,09,38,11.00
2013,04,28,09,39,11.10
2013,04,28,09,40,11.20
2013,04,28,09,41,11.30
2013,04,28,09,42,11.40
2013,04,28,09,43,11.40
2013,04,28,09,44,11.40
2013,04,28,09,45,11.40
2013,04,28,09,46,11.40
2013,04,28,09,47,11.40
2013,04,28,09,48,11.40
2013,04,28,09,49,11.40
2013,04,28,09,50,11.40
2013,04,28,09,51,11.40
2013,04,28,09,52,11.40
2013,04,28,09,53,11.40
2013,04,28,09,54,11.40
2013,04,28,09,55,11.40
2013,04,28,09,56,11.40
2013,04,28,09,57,11.30
2013,04,28,09,58,11.40
2013,04,28,09,59,11.50
2013,04,28,10,00,11.50
2013,04,28,10,01,11.60
2013,04,28,10,02,11.60
2013,04,28,10,03,11.60
2013,04,28,10,04,11.60
2013,04,28,10,05,11.60
2013,04,28,10,06,11.60
2013,04,28,10,07,11.70
2013,04,28,10,08,11.80
2013,04,28,10,09,11.90
2013,04,28,10,10,11.90
2013,04,28,10,11,12.00
2013,04,28,10,12,12.10
2013,04,28,10,13,12.10
2013,04,28,10,14,12.10
2013,04,28,10,15,12.20
2013,04,28,10,16,12.20
2013,04,28,10,17,12.20
2013,04,28,10,18,12.20
2013,04,28,10,19,12.10
2013,04,28,10,20,12.10
2013,04,28,10,21,12.00
2013,04,28,10,22,11.90
2013,04,28,10,23,11.80
2013,04,28,10,24,11.80
2013,04,28,10,25,11.80
2013,04,28,10,26,11.80
2013,04,28,10,27,11.80
2013,04,28,10,28,11.90
2013,04,28,10,29,11.90
2013,04,28,10,30,11.80
2013,04,28,10,31,11.80
2013,04,28,10,32,11.80
2013,04,28,10,33,11.80
2013,04,28,10,34,11.80
2013,04,28,10,35,11.80
2013,04,28,10,36,11.80
2013,04,28,10,37,11.80
2013,04,28,10,38,11.80
2013,04,28,10,39,11.80
2013,04,28,10,40,11.70
2013,04,28,10,41,11.70
2013,04,28,10,42,11.70
2013,04,28,10,43,11.60
2013,04,28,10,44,11.60
2013,04,28,10,45,11.50
2013,04,28,10,46,11.40
2013,04,28,10,47,11.40
2013,04,28,10,48,11.40
2013,04,28,10,49,11.30
2013,04,28,10,50,11.20
2013,04,28,10,51,11.10
2013,04,28,10,52,11.10
2013,04,28,10,53,11.10
2013,04,28,10,54,11.20
2013,04,28,10,55,11.30
2013,04,28,10,56,11.30
2013,04,28,10,57,11.30
2013,04,28,10,58,11.40
2013,04,28,10,59,11.40
2013,04,28,11,00,11.50
2013,04,28,11,01,11.50
2013,04,28,11,02,11.40
2013,04,28,11,03,11.40
2013,04,28,11,04,11.30
2013,04,28,11,05,11.40
2013,04,28,11,06,11.60
2013,04,28,11,07,11.70
2013,04,28,11,08,11.80
2013,04,28,11,09,12.00
2013,04,28,11,10,12.10
2013,04,28,11,11,12.10
2013,04,28,11,12,12.10
2013,04,28,11,13,12.10
2013,04,28,11,14,12.20
2013,04,28,11,15,12.30
2013,04,28,11,16,12.30
2013,04,28,11,17,12.30
2013,04,28,11,18,12.30
2013,04,28,11,19,12.20
2013,04,28,11,20,12.10
2013,04,28,11,21,12.00
2013,04,28,11,22,11.90
2013,04,28,11,23,11.80
2013,04,28,11,24,11.90
2013,04,28,11,25,11.90
2013,04,28,11,26,11.90
2013,04,28,11,27,12.00
2013,04,28,11,28,12.20
2013,04,28,11,29,12.30
2013,04,28,11,30,12.50
2013,04,28,11,31,12.70
2013,04,28,11,32,12.70
2013,04,28,11,33,12.80
2013,04,28,11,34,12.80
2013,04,28,11,35,12.70
2013,04,28,11,36,12.60
2013,04,28,11,37,12.60
2013,04,28,11,38,12.40
2013,04,28,11,39,12.20
2013,04,28,11,40,12.00
2013,04,28,11,41,11.90
2013,04,28,11,42,11.90
2013,04,28,11,43,12.00
2013,04,28,11,44,12.10
2013,04,28,11,45,12.20
2013,04,28,11,46,12.30
2013,04,28,11,47,12.40
2013,04,28,11,48,12.60
2013,04,28,11,49,12.80
2013,04,28,11,50,12.90
2013,04,28,11,51,13.10
2013,04,28,11,52,13.20
2013,04,28,11,53,13.30
2013,04,28,11,54,13.40
2013,04,28,11,55,13.60
2013,04,28,11,56,13.60
2013,04,28,11,57,13.70
2013,04,28,11,58,13.80
2013,04,28,11,59,13.80
2013,04,28,12,00,13.70
2013,04,28,12,01,13.70
2013,04,28,12,02,13.60
2013,04,28,12,03,13.50
2013,04,28,12,04,13.40
2013,04,28,12,05,13.50
2013,04,28,12,06,13.60
2013,04,28,12,07,13.70
2013,04,28,12,08,13.80
2013,04,28,12,09,13.80
2013,04,28,12,10,13.80
2013,04,28,12,11,13.80
2013,04,28,12,12,13.70
2013,04,28,12,13,13.70
2013,04,28,12,14,13.70
2013,04,28,12,15,13.60
2013,04,28,12,16,13.40
2013,04,28,12,17,13.40
2013,04,28,12,18,13.30
2013,04,28,12,19,13.00
2013,04,28,12,20,12.70
2013,04,28,12,21,12.50
2013,04,28,12,22,12.30
2013,04,28,12,23,12.10
2013,04,28,12,24,11.90
2013,04,28,12,25,11.90
2013,04,28,12,26,12.00
2013,04,28,12,27,12.00
2013,04,28,12,28,12.00
2013,04,28,12,29,11.90
2013,04,28,12,30,11.90
2013,04,28,12,31,12.00
2013,04,28,12,32,12.10
2013,04,28,12,33,12.10
2013,04,28,12,34,12.00
2013,04,28,12,35,11.90
2013,04,28,12,36,11.70
2013,04,28,12,37,11.60
2013,04,28,12,38,11.50
2013,04,28,12,39,11.50
2013,04,28,12,40,11.60
2013,04,28,12,41,11.70
2013,04,28,12,42,11.70
2013,04,28,12,43,11.70
2013,04,28,12,44,11.70
2013,04,28,12,45,11.80
2013,04,28,12,46,11.80
2013,04,28,12,47,11.80
2013,04,28,12,48,11.80
2013,04,28,12,49,11.80
2013,04,28,12,50,11.60
2013,04,28,12,51,11.50
2013,04,28,12,52,11.30
2013,04,28,12,53,11.30
2013,04,28,12,54,11.30
2013,04,28,12,55,11.20
2013,04,28,12,56,11.20
2013,04,28,12,57,11.10
2013,04,28,12,58,11.00
2013,04,28,12,59,10.90
2013,04,28,13,00,10.90
2013,04,28,13,01,11.00
2013,04,28,13,02,11.10
2013,04,28,13,03,11.10
2013,04,28,13,04,11.20
2013,04,28,13,05,11.20
2013,04,28,13,06,11.30
2013,04,28,13,07,11.20
2013,04,28,13,08,11.20
2013,04,28,13,09,11.20
2013,04,28,13,10,11.10
2013,04,28,13,11,11.00
2013,04,28,13,12,10.90
2013,04,28,13,13,10.90
2013,04,28,13,14,10.90
2013,04,28,13,15,10.80
2013,04,28,13,16,10.80
2013,04,28,13,17,10.80
2013,04,28,13,18,10.90
2013,04,28,13,19,10.80
2013,04,28,13,20,10.80
2013,04,28,13,21,10.90
2013,04,28,13,22,10.90
2013,04,28,13,23,11.00
2013,04,28,13,24,11.10
2013,04,28,13,25,11.10
2013,04,28,13,26,11.10
2013,04,28,13,27,11.00
2013,04,28,13,28,10.90
2013,04,28,13,29,10.90
2013,04,28,13,30,10.90
2013,04,28,13,31,10.90
2013,04,28,13,32,10.90
2013,04,28,13,33,10.90
2013,04,28,13,34,10.90
2013,04,28,13,35,10.90
2013,04,28,13,36,10.80
2013,04,28,13,37,10.80
2013,04,28,13,38,10.80
2013,04,28,13,39,10.80
2013,04,28,13,40,10.90
2013,04,28,13,41,10.80
2013,04,28,13,42,10.80
2013,04,28,13,43,10.80
2013,04,28,13,44,10.80
2013,04,28,13,45,10.80
2013,04,28,13,46,10.80
2013,04,28,13,47,10.80
2013,04,28,13,48,10.80
2013,04,28,13,49,10.90
2013,04,28,13,50,10.90
2013,04,28,13,51,10.90
2013,04,28,13,52,11.00
2013,04,28,13,53,11.00
2013,04,28,13,54,10.90
2013,04,28,13,55,11.00
2013,04,28,13,56,11.00
2013,04,28,13,57,11.10
2013,04,28,13,58,11.20
2013,04,28,13,59,11.20
2013,04,28,14,00,11.20
2013,04,28,14,01,11.10
2013,04,28,14,02,11.00
2013,04,28,14,03,11.00
2013,04,28,14,04,11.00
2013,04,28,14,05,11.10
2013,04,28,14,06,11.10
2013,04,28,14,07,11.00
2013,04,28,14,08,10.90
2013,04,28,14,09,10.90
2013,04,28,14,10,10.90
2013,04,28,14,11,10.90
2013,04,28,14,12,10.90
2013,04,28,14,13,10.90
2013,04,28,14,14,10.90
2013,04,28,14,15,11.00
2013,04,28,14,16,11.00
2013,04,28,14,17,11.00
2013,04,28,14,18,11.00
2013,04,28,14,19,10.90
2013,04,28,14,20,10.90
2013,04,28,14,21,10.90
2013,04,28,14,22,10.90
2013,04,28,14,23,10.90
2013,04,28,14,24,10.90
2013,04,28,14,25,10.80
2013,04,28,14,26,10.80
2013,04,28,14,27,10.80
2013,04,28,14,28,10.80
2013,04,28,14,29,10.90
2013,04,28,14,30,10.90
2013,04,28,14,31,10.90
2013,04,28,14,32,10.90
2013,04,28,14,33,11.00
2013,04,28,14,34,11.00
2013,04,28,14,35,11.00
2013,04,28,14,36,11.10
2013,04,28,14,37,11.10
2013,04,28,14,38,11.20
2013,04,28,14,39,11.20
2013,04,28,14,40,11.40
2013,04,28,14,41,11.40
2013,04,28,14,42,11.50
2013,04,28,14,43,11.60
2013,04,28,14,44,11.60
2013,04,28,14,45,11.60
2013,04,28,14,46,11.60
2013,04,28,14,47,11.50
2013,04,28,14,48,11.50
2013,04,28,14,49,11.50
2013,04,28,14,50,11.50
2013,04,28,14,51,11.40
2013,04,28,14,52,11.40
2013,04,28,14,53,11.40
2013,04,28,14,54,11.40
2013,04,28,14,55,11.40
2013,04,28,14,56,11.40
2013,04,28,14,57,11.50
2013,04,28,14,58,11.60
2013,04,28,14,59,11.70
2013,04,28,15,00,11.80
2013,04,28,15,01,11.90
2013,04,28,15,02,12.00
2013,04,28,15,03,12.10
2013,04,28,15,04,12.20
2013,04,28,15,05,12.20
2013,04,28,15,06,12.30
2013,04,28,15,07,12.40
2013,04,28,15,08,12.40
2013,04,28,15,09,12.40
2013,04,28,15,10,12.50
2013,04,28,15,11,12.50
2013,04,28,15,12,12.60
2013,04,28,15,13,12.60
2013,04,28,15,14,12.60
2013,04,28,15,15,12.60
2013,04,28,15,16,12.50
2013,04,28,15,17,12.40
2013,04,28,15,18,12.40
2013,04,28,15,19,12.30
2013,04,28,15,20,12.30
2013,04,28,15,21,12.30
2013,04,28,15,22,12.30
2013,04,28,15,23,12.30
2013,04,28,15,24,12.30
2013,04,28,15,25,12.30
2013,04,28,15,26,12.30
2013,04,28,15,27,12.30
2013,04,28,15,28,12.30
2013,04,28,15,29,12.20
2013,04,28,15,30,12.20
2013,04,28,15,31,12.20
2013,04,28,15,32,12.20
2013,04,28,15,33,12.20
2013,04,28,15,34,12.10
2013,04,28,15,35,12.10
2013,04,28,15,36,12.10
2013,04,28,15,37,12.10
2013,04,28,15,38,12.10
2013,04,28,15,39,12.10
2013,04,28,15,40,12.10
2013,04,28,15,41,12.10
2013,04,28,15,42,12.00
2013,04,28,15,43,12.00
2013,04,28,15,44,12.00
2013,04,28,15,45,11.90
2013,04,28,15,46,11.90
2013,04,28,15,47,11.90
2013,04,28,15,48,11.90
2013,04,28,15,49,11.90
2013,04,28,15,50,11.90
2013,04,28,15,51,11.90
2013,04,28,15,52,11.90
2013,04,28,15,53,11.90
2013,04,28,15,54,11.90
2013,04,28,15,55,11.90
2013,04,28,15,56,11.80
2013,04,28,15,57,11.80
2013,04,28,15,58,11.80
2013,04,28,15,59,11.80
2013,04,28,16,00,11.80
2013,04,28,16,01,11.80
2013,04,28,16,02,11.80
2013,04,28,16,03,11.80
2013,04,28,16,04,11.80
2013,04,28,16,05,11.80
2013,04,28,16,06,11.70
2013,04,28,16,07,11.70
2013,04,28,16,08,11.70
2013,04,28,16,09,11.70
2013,04,28,16,10,11.70
2013,04,28,16,11,11.70
2013,04,28,16,12,11.70
2013,04,28,16,13,11.80
2013,04,28,16,14,11.80
2013,04,28,16,15,11.80
2013,04,28,16,16,11.80
2013,04,28,16,17,11.80
2013,04,28,16,18,11.80
2013,04,28,16,19,11.80
2013,04,28,16,20,11.90
2013,04,28,16,21,11.90
2013,04,28,16,22,11.90
2013,04,28,16,23,11.80
2013,04,28,16,24,11.80
2013,04,28,16,25,11.80
2013,04,28,16,26,11.80
2013,04,28,16,27,11.80
2013,04,28,16,28,11.80
2013,04,28,16,29,11.80
2013,04,28,16,30,11.80
2013,04,28,16,31,11.80
2013,04,28,16,32,11.80
2013,04,28,16,33,11.70
2013,04,28,16,34,11.70
2013,04,28,16,35,11.70
2013,04,28,16,36,11.70
2013,04,28,16,37,11.70
2013,04,28,16,38,11.70
2013,04,28,16,39,11.70
2013,04,28,16,40,11.60
2013,04,28,16,41,11.60
2013,04,28,16,42,11.60
2013,04,28,16,43,11.50
2013,04,28,16,44,11.50
2013,04,28,16,45,11.40
2013,04,28,16,46,11.40
2013,04,28,16,47,11.40
2013,04,28,16,48,11.40
2013,04,28,16,49,11.40
2013,04,28,16,50,11.40
2013,04,28,16,51,11.40
2013,04,28,16,52,11.30
2013,04,28,16,53,11.30
2013,04,28,16,54,11.30
2013,04,28,16,55,11.20
2013,04,28,16,56,11.20
2013,04,28,16,57,11.10
2013,04,28,16,58,11.10
2013,04,28,16,59,11.00
2013,04,28,17,00,11.00
2013,04,28,17,01,10.90
2013,04,28,17,02,10.90
2013,04,28,17,03,10.90
2013,04,28,17,04,10.80
2013,04,28,17,05,10.80
2013,04,28,17,06,10.80
2013,04,28,17,07,10.80
2013,04,28,17,08,10.80
2013,04,28,17,09,10.80
2013,04,28,17,10,10.80
2013,04,28,17,11,10.80
2013,04,28,17,12,10.80
2013,04,28,17,13,10.80
2013,04,28,17,14,10.70
2013,04,28,17,15,10.70
2013,04,28,17,16,10.70
2013,04,28,17,17,10.80
2013,04,28,17,18,10.70
2013,04,28,17,19,10.70
2013,04,28,17,20,10.70
2013,04,28,17,21,10.80
2013,04,28,17,22,10.80
2013,04,28,17,23,10.80
2013,04,28,17,24,10.80
2013,04,28,17,25,10.80
2013,04,28,17,26,10.80
2013,04,28,17,27,10.80
2013,04,28,17,28,10.80
2013,04,28,17,29,10.80
2013,04,28,17,30,10.80
2013,04,28,17,31,10.80
2013,04,28,17,32,10.80
2013,04,28,17,33,10.80
2013,04,28,17,34,10.80
2013,04,28,17,35,10.80
2013,04,28,17,36,10.80
2013,04,28,17,37,10.90
2013,04,28,17,38,10.90
2013,04,28,17,39,10.90
2013,04,28,17,40,10.90
2013,04,28,17,41,11.00
2013,04,28,17,42,11.00